Location: Arrington
(35.8681°N, 86.7092°W)
Time: 03:16:56
(UTC+00:00)

OAO 3 Copernicus - Pass Details

Date: 23 November 2019
Orbit: 694 x 705 km, 35.0° (Epoch: 12 December)

Event Time Altitude Azimuth Distance (km) Brightness Sun altitude
Exits shadow 11:14:11 24° 270° (W) 1,406 5.3 -15.5°
Maximum altitude 11:17:10 75° 189° (S) 716 4.3 -14.9°
Drops below altitude 10° 11:22:11 10° 104° (ESE) 2,140 8.3 -13.9°
Sets 11:24:35 0° 102° (ESE) 3,056 9.7 -13.4°
